FW7316 Weather Reports


Display with metric or nautical units.
time (UTC)temp
F
wind
direction
speed
MPH
gust
MPH
rain 1hr
in
rain 24hr
in
rain mn
in
humidity
%
barometer
mb
20260502170503 71 65 2.0 9.0 0.00 0.00 0.00 42 1019.8
20260502170400 71 38 4.0 9.0 0.00 0.00 0.00 40 1019.8
20260502170300 71 65 4.0 9.0 0.00 0.00 0.00 41 1019.8
20260502170204 71 57 3.0 9.0 0.00 0.00 0.00 41 1019.8
20260502164200 71 36 6.0 10.0 0.00 0.00 0.00 39 1019.9
20260502164103 72 48 4.0 10.0 0.00 0.00 0.00 40 1020.0
20260502164000 71 80 6.0 10.0 0.00 0.00 0.00 39 1020.0
20260502163900 72 61 2.0 10.0 0.00 0.00 0.00 39 1020.0
20260502163806 72 85 7.0 10.0 0.00 0.00 0.00 39 1020.0
20260502163700 72 59 8.0 9.0 0.00 0.00 0.00 40 1020.0
20260502163603 72 51 3.0 9.0 0.00 0.00 0.00 37 1020.0
20260502163503 72 49 4.0 8.0 0.00 0.00 0.00 37 1020.1
20260502163401 72 61 4.0 10.0 0.00 0.00 0.00 38 1020.0
20260502163203 72 50 5.0 10.0 0.00 0.00 0.00 37 1020.1
20260502163100 72 49 5.0 10.0 0.00 0.00 0.00 38 1020.1
20260502163002 72 53 7.0 10.0 0.00 0.00 0.00 38 1020.1
20260502162905 72 74 7.0 10.0 0.00 0.00 0.00 38 1020.1
20260502162801 72 69 8.0 10.0 0.00 0.00 0.00 39 1020.1
20260502162501 72 80 9.0 10.0 0.00 0.00 0.00 38 1020.1
20260502162305 72 87 5.0 10.0 0.00 0.00 0.00 39 1020.1
20260502162201 72 60 7.0 11.0 0.00 0.00 0.00 38 1020.1
20260502162104 72 88 5.0 11.0 0.00 0.00 0.00 37 1020.1
20260502162008 72 53 3.0 11.0 0.00 0.00 0.00 37 1020.1
20260502161901 72 60 7.0 11.0 0.00 0.00 0.00 38 1020.1
20260502161800 72 58 9.0 11.0 0.00 0.00 0.00 37 1020.2
20260502161703 72 31 6.0 11.0 0.00 0.00 0.00 36 1020.2
20260502161600 72 69 5.0 11.0 0.00 0.00 0.00 37 1020.2
20260502161500 72 49 5.0 11.0 0.00 0.00 0.00 38 1020.2
20260502161300 72 74 10.0 11.0 0.00 0.00 0.00 38 1020.1
20260502161200 73 45 10.0 10.0 0.00 0.00 0.00 38 1020.2
20260502161103 73 73 5.0 11.0 0.00 0.00 0.00 37 1020.2
20260502161006 73 66 10.0 11.0 0.00 0.00 0.00 37 1020.2
20260502160900 73 77 3.0 9.0 0.00 0.00 0.00 36 1020.2
20260502160805 73 83 6.0 9.0 0.00 0.00 0.00 36 1020.2
20260502160700 73 48 4.0 9.0 0.00 0.00 0.00 37 1020.2
20260502160600 73 45 8.0 9.0 0.00 0.00 0.00 36 1020.2
20260502160503 73 55 3.0 10.0 0.00 0.00 0.00 37 1020.2
20260502160400 73 63 4.0 10.0 0.00 0.00 0.00 36 1020.2
20260502160203 73 42 5.0 10.0 0.00 0.00 0.00 35 1020.3
20260502160121 73 40 5.0 10.0 0.00 0.00 0.00 36 1020.3
20260502152305 74 92 6.0 7.0 0.00 0.00 0.00 36 1020.6
20260502152200 74 86 6.0 8.0 0.00 0.00 0.00 35 1020.6
20260502152059 74 128 5.0 10.0 0.00 0.00 0.00 39 1020.6
20260502152004 74 128 4.0 10.0 0.00 0.00 0.00 37 1020.6
20260502151900 74 121 3.0 10.0 0.00 0.00 0.00 35 1020.6
20260502151801 74 105 4.0 10.0 0.00 0.00 0.00 37 1020.6
20260502151703 74 51 3.0 10.0 0.00 0.00 0.00 36 1020.6
20260502151600 74 66 5.0 10.0 0.00 0.00 0.00 37 1020.6
20260502151501 74 78 5.0 10.0 0.00 0.00 0.00 35 1020.6
20260502151403 74 40 5.0 10.0 0.00 0.00 0.00 36 1020.6
20260502151300 74 41 5.0 10.0 0.00 0.00 0.00 35 1020.6
20260502151200 74 50 7.0 10.0 0.00 0.00 0.00 36 1020.6
20260502151102 74 44 5.0 8.0 0.00 0.00 0.00 35 1020.7
20260502151001 74 49 4.0 9.0 0.00 0.00 0.00 35 1020.7
20260502150803 74 55 5.0 8.0 0.00 0.00 0.00 36 1020.7
20260502150700 74 55 4.0 8.0 0.00 0.00 0.00 38 1020.7
20260502150600 74 52 4.0 8.0 0.00 0.00 0.00 37 1020.7
20260502150503 74 78 3.0 8.0 0.00 0.00 0.00 39 1020.7
20260502150300 74 49 4.0 8.0 0.00 0.00 0.00 36 1020.7
20260502150202 74 83 3.0 8.0 0.00 0.00 0.00 34 1020.7
20260502140118 73 351 4.0 10.0 0.00 0.00 0.00 35 1021.5
20260502130700 74 71 5.0 8.0 0.00 0.00 0.00 36 1022.2
20260502130600 74 105 7.0 7.0 0.00 0.00 0.00 34 1022.2
20260502130503 74 59 3.0 6.0 0.00 0.00 0.00 37 1022.2
20260502130400 74 40 5.0 8.0 0.00 0.00 0.00 37 1022.3
20260502130203 74 46 6.0 10.0 0.00 0.00 0.00 37 1022.3
20260502123802 73 41 1.0 5.0 0.00 0.00 0.00 34 1022.4
20260502123700 73 41 3.0 5.0 0.00 0.00 0.00 33 1022.4
20260502123601 73 296 2.0 5.0 0.00 0.00 0.00 35 1022.5
20260502123504 73 321 1.0 5.0 0.00 0.00 0.00 39 1022.5
20260502123400 73 340 4.0 7.0 0.00 0.00 0.00 36 1022.5
20260502123203 73 52 1.0 7.0 0.00 0.00 0.00 36 1022.5
20260502123100 73 43 3.0 10.0 0.00 0.00 0.00 37 1022.5
20260502123003 73 69 5.0 10.0 0.00 0.00 0.00 39 1022.5
20260502122904 73 37 2.0 10.0 0.00 0.00 0.00 38 1022.5
20260502122759 73 95 2.0 10.0 0.00 0.00 0.00 38 1022.5
20260502122602 73 64 2.0 10.0 0.00 0.00 0.00 40 1022.5
20260502122500 73 72 5.0 10.0 0.00 0.00 0.00 36 1022.5
20260502122305 73 81 6.0 10.0 0.00 0.00 0.00 39 1022.6
20260502122200 73 26 5.0 10.0 0.00 0.00 0.00 41 1022.5
20260502122059 73 342 5.0 9.0 0.00 0.00 0.00 37 1022.6
20260502121859 73 28 5.0 9.0 0.00 0.00 0.00 34 1022.6
20260502121800 73 28 3.0 9.0 0.00 0.00 0.00 36 1022.6
20260502121702 73 19 8.0 8.0 0.00 0.00 0.00 35 1022.6
20260502121600 73 348 2.0 7.0 0.00 0.00 0.00 37 1022.6
20260502121500 73 15 5.0 7.0 0.00 0.00 0.00 34 1022.6
20260502121300 73 331 2.0 7.0 0.00 0.00 0.00 35 1022.6
20260502121200 73 314 1.0 7.0 0.00 0.00 0.00 37 1022.6
20260502121102 73 317 6.0 7.0 0.00 0.00 0.00 37 1022.6
20260502121001 73 330 4.0 7.0 0.00 0.00 0.00 37 1022.7
20260502120900 73 11 3.0 7.0 0.00 0.00 0.00 35 1022.7
20260502120803 73 24 3.0 7.0 0.00 0.00 0.00 38 1022.7
20260502120600 73 35 3.0 7.0 0.00 0.00 0.00 37 1022.8
20260502120505 73 17 2.0 7.0 0.00 0.00 0.00 36 1022.8
20260502120400 73 42 5.0 9.0 0.00 0.00 0.00 41 1022.8
20260502120300 72 41 5.0 9.0 0.00 0.00 0.00 37 1022.8
20260502120202 72 38 4.0 9.0 0.00 0.00 0.00 34 1022.8
20260502120114 72 41 2.0 9.0 0.00 0.00 0.00 34 1022.8
20260502115903 72 94 3.0 9.0 0.00 0.00 0.00 34 1022.9
20260502115800 72 65 3.0 9.0 0.00 0.00 0.00 39 1022.9
20260502115701 72 113 2.0 9.0 0.00 0.00 0.00 34 1022.9
20260502115603 72 72 4.0 9.0 0.00 0.00 0.00 38 1022.9
20260502115500 72 75 5.0 9.0 0.00 0.00 0.00 38 1022.9
20260502115359 72 105 5.0 8.0 0.00 0.00 0.00 35 1023.0
20260502115305 72 88 2.0 8.0 0.00 0.00 0.00 34 1022.9
20260502115004 73 157 1.0 8.0 0.00 0.00 0.00 35 1022.9
20260502114859 73 179 1.0 9.0 0.00 0.00 0.00 36 1023.0
20260502114802 73 160 2.0 10.0 0.00 0.00 0.00 37 1023.0
20260502114702 72 137 2.0 17.0 0.00 0.00 0.00 39 1023.0
20260502114601 73 120 5.0 17.0 0.00 0.00 0.00 37 1023.1
20260502114402 73 119 4.0 17.0 0.00 0.00 0.00 38 1023.1
20260502114102 72 82 8.0 17.0 0.00 0.00 0.00 40 1023.2
20260502114000 72 93 8.0 17.0 0.00 0.00 0.00 37 1023.2
20260502113900 72 87 8.0 17.0 0.00 0.00 0.00 38 1023.2
20260502113804 72 94 8.0 17.0 0.00 0.00 0.00 40 1023.2
20260502113659 72 74 8.0 11.0 0.00 0.00 0.00 40 1023.1
20260502113600 72 99 5.0 11.0 0.00 0.00 0.00 36 1023.2
20260502113507 72 82 9.0 9.0 0.00 0.00 0.00 40 1023.2
20260502113300 72 55 5.0 8.0 0.00 0.00 0.00 40 1023.2
20260502113207 72 30 5.0 8.0 0.00 0.00 0.00 38 1023.2
20260502113103 72 42 3.0 8.0 0.00 0.00 0.00 34 1023.2
20260502113004 72 57 7.0 8.0 0.00 0.00 0.00 36 1023.2
20260502112905 72 61 8.0 8.0 0.00 0.00 0.00 37 1023.2
20260502112800 72 67 3.0 7.0 0.00 0.00 0.00 35 1023.2
20260502112702 72 92 5.0 7.0 0.00 0.00 0.00 39 1023.3
20260502112608 72 96 3.0 7.0 0.00 0.00 0.00 43 1023.3
20260502112501 72 125 1.0 8.0 0.00 0.00 0.00 40 1023.3
20260502112400 72 128 3.0 10.0 0.00 0.00 0.00 36 1023.3
20260502112305 71 121 5.0 10.0 0.00 0.00 0.00 42 1023.3
20260502112200 71 267 1.0 10.0 0.00 0.00 0.00 35 1023.3
20260502112100 71 153 2.0 10.0 0.00 0.00 0.00 35 1023.3
20260502112003 71 134 1.0 10.0 0.00 0.00 0.00 36 1023.3
20260502111900 71 126 2.0 10.0 0.00 0.00 0.00 43 1023.4
20260502111759 71 192 4.0 10.0 0.00 0.00 0.00 37 1023.4
20260502111704 71 90 2.0 10.0 0.00 0.00 0.00 36 1023.4
20260502111600 71 90 6.0 10.0 0.00 0.00 0.00 37 1023.4
20260502111500 71 86 8.0 10.0 0.00 0.00 0.00 34 1023.4
20260502111402 72 54 7.0 8.0 0.00 0.00 0.00 38 1023.4
20260502111300 72 25 4.0 8.0 0.00 0.00 0.00 41 1023.5
20260502111159 72 9 3.0 8.0 0.00 0.00 0.00 38 1023.5
20260502111102 72 20 5.0 8.0 0.00 0.00 0.00 35 1023.5
20260502111000 72 34 6.0 7.0 0.00 0.00 0.00 34 1023.6
20260502110900 72 28 4.0 7.0 0.00 0.00 0.00 37 1023.6
20260502110802 72 23 3.0 7.0 0.00 0.00 0.00 35 1023.6
20260502110700 72 280 1.0 7.0 0.00 0.00 0.00 34 1023.6
20260502110600 72 280 1.0 7.0 0.00 0.00 0.00 36 1023.6
20260502110502 71 265 4.0 7.0 0.00 0.00 0.00 34 1023.7
20260502110300 71 332 0.0 7.0 0.00 0.00 0.00 45 1023.7
20260502110100 71 340 5.0 7.0 0.00 0.00 0.00 36 1023.7
20260502110006 71 15 6.0 7.0 0.00 0.00 0.00 36 1023.7
20260502105903 71 329 4.0 5.0 0.00 0.00 0.00 38 1023.8
20260502105800 71 328 3.0 8.0 0.00 0.00 0.00 36 1023.8
20260502105602 71 286 0.0 8.0 0.00 0.00 0.00 36 1023.8
20260502105401 71 278 3.0 8.0 0.00 0.00 0.00 36 1023.9
20260502105305 71 360 1.0 9.0 0.00 0.00 0.00 38 1023.9
20260502105100 71 360 2.0 9.0 0.00 0.00 0.00 37 1024.0
20260502105004 71 46 3.0 9.0 0.00 0.00 0.00 36 1024.0
20260502104900 71 30 4.0 9.0 0.00 0.00 0.00 35 1024.0
20260502104800 71 54 6.0 9.0 0.00 0.00 0.00 38 1024.0
20260502104702 71 24 5.0 9.0 0.00 0.00 0.00 37 1024.0
20260502104600 71 22 6.0 9.0 0.00 0.00 0.00 41 1024.1
20260502104500 71 342 3.0 9.0 0.00 0.00 0.00 36 1024.1
20260502104403 71 34 6.0 9.0 0.00 0.00 0.00 41 1024.1
20260502104102 71 46 2.0 9.0 0.00 0.00 0.00 39 1024.1
20260502103900 70 115 1.0 9.0 0.00 0.00 0.00 38 1024.1
20260502103802 70 119 3.0 9.0 0.00 0.00 0.00 37 1024.1
20260502103700 70 101 1.0 9.0 0.00 0.00 0.00 38 1024.1
20260502103600 70 58 1.0 9.0 0.00 0.00 0.00 35 1024.1
20260502103359 70 46 4.0 9.0 0.00 0.00 0.00 38 1024.2
20260502103300 70 61 3.0 9.0 0.00 0.00 0.00 38 1024.2
20260502103203 70 29 3.0 9.0 0.00 0.00 0.00 37 1024.2
20260502103059 70 50 9.0 9.0 0.00 0.00 0.00 40 1024.2
20260502103000 70 40 6.0 8.0 0.00 0.00 0.00 34 1024.1
20260502102801 71 24 8.0 8.0 0.00 0.00 0.00 37 1024.2
20260502102700 70 90 5.0 6.0 0.00 0.00 0.00 38 1024.2
20260502102500 70 288 1.0 5.0 0.00 0.00 0.00 35 1024.2
20260502102400 70 288 1.0 5.0 0.00 0.00 0.00 36 1024.3
20260502102306 70 269 2.0 5.0 0.00 0.00 0.00 37 1024.2
20260502102200 70 263 4.0 6.0 0.00 0.00 0.00 35 1024.3
20260502102059 71 275 2.0 6.0 0.00 0.00 0.00 34 1024.4
20260502102004 71 325 2.0 8.0 0.00 0.00 0.00 33 1024.4
20260502101900 71 348 3.0 8.0 0.00 0.00 0.00 37 1024.3
20260502101801 71 336 3.0 8.0 0.00 0.00 0.00 36 1024.3
20260502101500 71 303 3.0 8.0 0.00 0.00 0.00 37 1024.4
20260502101402 71 303 0.0 8.0 0.00 0.00 0.00 37 1024.4
20260502101300 71 317 4.0 8.0 0.00 0.00 0.00 36 1024.4
20260502101200 71 333 4.0 8.0 0.00 0.00 0.00 42 1024.4
20260502101102 71 345 6.0 8.0 0.00 0.00 0.00 37 1024.4
20260502101001 71 340 4.0 6.0 0.00 0.00 0.00 37 1024.4
20260502100900 71 35 3.0 6.0 0.00 0.00 0.00 37 1024.4
20260502100700 71 78 2.0 6.0 0.00 0.00 0.00 35 1024.4
20260502100559 71 71 2.0 6.0 0.00 0.00 0.00 37 1024.4
20260502100510 70 61 3.0 7.0 0.00 0.00 0.00 36 1024.4
20260502100400 70 61 0.0 7.0 0.00 0.00 0.00 37 1024.4
20260502100301 70 61 1.0 7.0 0.00 0.00 0.00 35 1024.4
20260502100207 70 36 2.0 7.0 0.00 0.00 0.00 36 1024.4
20260502100117 70 25 4.0 7.0 0.00 0.00 0.00 41 1024.5
20260502091500 69 351 5.0 5.0 0.00 0.00 0.00 38 1024.8
20260502091402 68 355 3.0 4.0 0.00 0.00 0.00 37 1024.8
20260502091259 68 355 2.0 6.0 0.00 0.00 0.00 36 1024.8
20260502091200 68 355 2.0 6.0 0.00 0.00 0.00 37 1024.8
20260502091103 68 355 1.0 6.0 0.00 0.00 0.00 35 1024.8
20260502090900 69 28 3.0 6.0 0.00 0.00 0.00 37 1024.8
20260502090803 68 28 2.0 6.0 0.00 0.00 0.00 38 1024.8
20260502090700 68 36 3.0 6.0 0.00 0.00 0.00 39 1024.8
20260502090600 68 38 2.0 6.0 0.00 0.00 0.00 38 1024.8
20260502090503 68 80 1.0 6.0 0.00 0.00 0.00 35 1024.8
20260502090359 69 69 4.0 6.0 0.00 0.00 0.00 37 1024.8
20260502090300 69 79 5.0 6.0 0.00 0.00 0.00 37 1024.8
20260502090203 69 51 5.0 6.0 0.00 0.00 0.00 40 1024.9
20260502071500 61 342 1.0 1.0 0.00 0.00 0.00 56 1025.2
20260502071402 61 342 0.0 1.0 0.00 0.00 0.00 59 1025.3
20260502071159 60 342 0.0 1.0 0.00 0.00 0.00 61 1025.3
20260502071103 60 342 0.0 1.0 0.00 0.00 0.00 57 1025.3
20260502071000 60 342 0.0 1.0 0.00 0.00 0.00 58 1025.3
20260502070900 60 342 0.0 1.0 0.00 0.00 0.00 58 1025.3
20260502070802 60 343 1.0 1.0 0.00 0.00 0.00 59 1025.3
20260502070700 59 53 0.0 0.0 0.00 0.00 0.00 59 1025.3
20260502070600 59 53 0.0 0.0 0.00 0.00 0.00 61 1025.4
20260502070503 59 53 0.0 0.0 0.00 0.00 0.00 62 1025.4
20260502070400 59 53 0.0 0.0 0.00 0.00 0.00 61 1025.3
20260502070300 59 53 0.0 2.0 0.00 0.00 0.00 61 1025.4
20260502070205 59 53 0.0 2.0 0.00 0.00 0.00 61 1025.4
20260502070100 58 53 0.0 2.0 0.00 0.00 0.00 62 1025.4
20260502070005 58 53 0.0 3.0 0.00 0.00 0.00 63 1025.4
20260502065904 58 53 0.0 3.0 0.00 0.00 0.00 62 1025.4
20260502065803 58 53 0.0 3.0 0.00 0.00 0.00 62 1025.3
20260502065700 58 53 0.0 3.0 0.00 0.00 0.00 64 1025.3
20260502065606 58 53 0.0 3.0 0.00 0.00 0.00 67 1025.3
20260502065502 58 53 0.0 3.0 0.00 0.00 0.00 67 1025.3
20260502065400 57 53 0.0 3.0 0.00 0.00 0.00 67 1025.3
20260502065200 57 53 1.0 3.0 0.00 0.00 0.00 68 1025.3
20260502065100 57 53 1.0 3.0 0.00 0.00 0.00 68 1025.3
20260502065004 57 53 0.0 2.0 0.00 0.00 0.00 68 1025.3
20260502064900 56 53 1.0 2.0 0.00 0.00 0.00 67 1025.3
20260502064800 56 53 1.0 2.0 0.00 0.00 0.00 67 1025.3
20260502064704 56 53 1.0 2.0 0.00 0.00 0.00 68 1025.3
20260502064600 56 53 1.0 3.0 0.00 0.00 0.00 67 1025.3
20260502064500 56 53 1.0 3.0 0.00 0.00 0.00 67 1025.3
20260502064402 55 53 2.0 3.0 0.00 0.00 0.00 67 1025.3
20260502064300 55 53 0.0 3.0 0.00 0.00 0.00 68 1025.3
20260502064159 55 53 2.0 3.0 0.00 0.00 0.00 68 1025.3
20260502064000 55 53 1.0 3.0 0.00 0.00 0.00 68 1025.3
20260502063900 55 53 2.0 3.0 0.00 0.00 0.00 68 1025.3
20260502063802 55 53 0.0 3.0 0.00 0.00 0.00 68 1025.3
20260502063659 54 53 2.0 3.0 0.00 0.00 0.00 66 1025.3
20260502063600 54 53 2.0 3.0 0.00 0.00 0.00 67 1025.3
20260502063504 54 53 2.0 3.0 0.00 0.00 0.00 67 1025.3
20260502063400 54 53 1.0 3.0 0.00 0.00 0.00 66 1025.3
20260502063259 54 53 0.0 3.0 0.00 0.00 0.00 65 1025.4
20260502063100 54 26 2.0 3.0 0.00 0.00 0.00 65 1025.4
20260502062902 54 57 3.0 3.0 0.00 0.00 0.00 67 1025.4
20260502062759 53 57 2.0 3.0 0.00 0.00 0.00 67 1025.4
20260502062659 53 32 3.0 3.0 0.00 0.00 0.00 69 1025.4
20260502062400 53 32 1.0 3.0 0.00 0.00 0.00 70 1025.3
20260502062306 53 32 2.0 3.0 0.00 0.00 0.00 71 1025.4
20260502062159 53 32 1.0 3.0 0.00 0.00 0.00 71 1025.4
20260502062100 52 32 2.0 3.0 0.00 0.00 0.00 72 1025.4
20260502062004 52 32 1.0 3.0 0.00 0.00 0.00 72 1025.4
20260502061702 52 32 2.0 3.0 0.00 0.00 0.00 73 1025.3
20260502061600 51 32 1.0 3.0 0.00 0.00 0.00 74 1025.3
20260502061500 51 32 2.0 3.0 0.00 0.00 0.00 74 1025.3
20260502061402 51 32 2.0 3.0 0.00 0.00 0.00 75 1025.3
20260502061200 51 32 2.0 3.0 0.00 0.00 0.00 75 1025.3
20260502061102 50 32 2.0 3.0 0.00 0.00 0.00 75 1025.3
20260502061001 50 32 2.0 3.0 0.00 0.00 0.00 75 1025.3
20260502060859 50 32 3.0 3.0 0.00 0.00 0.00 76 1025.3
20260502060802 49 32 2.0 3.0 0.00 0.00 0.00 76 1025.4
20260502060700 49 32 3.0 3.0 0.00 0.00 0.00 77 1025.3
20260502060559 49 36 2.0 3.0 0.00 0.00 0.00 78 1025.3
20260502060401 48 9 2.0 3.0 0.00 0.00 0.00 80 1025.3
20260502060300 48 9 1.0 3.0 0.00 0.00 0.00 80 1025.3
20260502060202 48 9 2.0 2.0 0.00 0.00 0.00 82 1025.4
20260502060117 47 9 1.0 2.0 0.00 0.00 0.00 85 1025.3
20260502060006 47 9 1.0 2.0 0.00 0.00 0.00 86 1025.3
20260502055904 46 9 1.0 2.0 0.00 0.00 0.00 87 1025.3
20260502055800 46 9 1.0 2.0 0.00 0.00 0.00 88 1025.3
20260502055701 46 9 1.0 2.0 0.00 0.00 0.00 89 1025.3
20260502055602 46 9 1.0 2.0 0.00 0.00 0.00 89 1025.3
20260502055500 46 9 1.0 2.0 0.00 0.00 0.00 90 1025.3
20260502055400 45 9 1.0 2.0 0.00 0.00 0.00 90 1025.3
20260502055305 45 9 1.0 2.0 0.00 0.00 0.00 90 1025.3
20260502055059 45 9 1.0 2.0 0.00 0.00 0.00 91 1025.3
20260502055003 44 9 0.0 2.0 0.00 0.00 0.00 91 1025.3
20260502054900 44 9 1.0 2.0 0.00 0.00 0.00 92 1025.3
20260502054759 44 9 2.0 2.0 0.00 0.00 0.00 92 1025.3
20260502054702 44 9 1.0 2.0 0.00 0.00 0.00 92 1025.3
20260502054503 44 9 2.0 2.0 0.00 0.00 0.00 93 1025.3
20260502054405 44 9 1.0 2.0 0.00 0.00 0.00 93 1025.3
20260502054200 43 9 1.0 1.0 0.00 0.00 0.00 94 1025.3
20260502054102 43 9 0.0 1.0 0.00 0.00 0.00 94 1025.3
20260502054002 43 9 1.0 1.0 0.00 0.00 0.00 94 1025.3
20260502053859 43 9 0.0 1.0 0.00 0.00 0.00 94 1025.3
20260502053802 43 9 0.0 1.0 0.00 0.00 0.00 94 1025.3
20260502053601 43 9 0.0 1.0 0.00 0.00 0.00 94 1025.2
20260502053259 42 9 0.0 1.0 0.00 0.00 0.00 95 1025.3
20260502053202 42 9 0.0 1.0 0.00 0.00 0.00 95 1025.3
20260502053059 42 107 0.0 1.0 0.00 0.00 0.00 95 1025.3
20260502053000 42 107 0.0 1.0 0.00 0.00 0.00 95 1025.3
20260502052903 42 107 0.0 1.0 0.00 0.00 0.00 95 1025.3
20260502052759 42 107 0.0 1.0 0.00 0.00 0.00 95 1025.3
20260502052659 42 107 0.0 1.0 0.00 0.00 0.00 95 1025.3
20260502052602 41 126 0.0 1.0 0.00 0.00 0.00 95 1025.3
20260502052459 41 126 1.0 1.0 0.00 0.00 0.00 95 1025.3
20260502052359 41 126 0.0 1.0 0.00 0.00 0.00 95 1025.3
20260502052305 41 126 0.0 0.0 0.00 0.00 0.00 95 1025.3
20260502052201 41 126 0.0 0.0 0.00 0.00 0.00 95 1025.3
20260502052059 41 126 0.0 0.0 0.00 0.00 0.00 95 1025.3
20260502052006 41 126 0.0 1.0 0.00 0.00 0.00 95 1025.3
20260502051900 41 126 0.0 1.0 0.00 0.00 0.00 95 1025.3
20260502051801 40 126 0.0 1.0 0.00 0.00 0.00 95 1025.3
20260502051559 40 126 0.0 1.0 0.00 0.00 0.00 95 1025.3
20260502051459 40 126 0.0 1.0 0.00 0.00 0.00 95 1025.3
20260502051403 40 126 0.0 1.0 0.00 0.00 0.00 95 1025.3
20260502051300 39 126 0.0 1.0 0.00 0.00 0.00 95 1025.3
20260502051159 39 126 0.0 1.0 0.00 0.00 0.00 94 1025.3
20260502051000 39 126 0.0 1.0 0.00 0.00 0.00 94 1025.3
20260502050802 39 126 0.0 1.0 0.00 0.00 0.00 95 1025.3
20260502050700 39 126 0.0 1.0 0.00 0.00 0.00 94 1025.3
20260502050559 38 126 0.0 1.0 0.00 0.00 0.00 94 1025.2
20260502050502 38 126 0.0 2.0 0.00 0.00 0.00 94 1025.3
20260502050300 38 126 0.0 2.0 0.00 0.00 0.00 94 1025.2
20260502050202 38 126 0.0 2.0 0.00 0.00 0.00 94 1025.2
20260502050105 38 123 0.0 2.0 0.00 0.00 0.00 94 1025.2
20260502050003 38 123 0.0 2.0 0.00 0.00 0.00 94 1025.3
20260502045902 38 123 0.0 2.0 0.00 0.00 0.00 94 1025.2
20260502045759 38 123 0.0 2.0 0.00 0.00 0.00 94 1025.2
20260502045659 38 123 0.0 2.0 0.00 0.00 0.00 94 1025.2
20260502045602 38 123 0.0 2.0 0.00 0.00 0.00 94 1025.3
20260502045500 37 123 2.0 2.0 0.00 0.00 0.00 94 1025.2
20260502045359 37 123 0.0 2.0 0.00 0.00 0.00 94 1025.3
20260502045200 37 123 0.0 2.0 0.00 0.00 0.00 94 1025.2
20260502045004 37 123 1.0 3.0 0.00 0.00 0.00 94 1025.3
20260502044759 37 123 0.0 3.0 0.00 0.00 0.00 94 1025.2
20260502044702 37 123 1.0 3.0 0.00 0.00 0.00 94 1025.2
20260502044559 37 123 1.0 3.0 0.00 0.00 0.00 94 1025.2
20260502044459 37 123 2.0 3.0 0.00 0.00 0.00 94 1025.3
20260502044402 37 123 1.0 3.0 0.00 0.00 0.00 94 1025.3
20260502044300 37 123 1.0 3.0 0.00 0.00 0.00 94 1025.2
20260502044159 37 123 2.0 3.0 0.00 0.00 0.00 94 1025.3
20260502044102 37 123 2.0 3.0 0.00 0.00 0.00 94 1025.2
20260502044000 37 123 2.0 3.0 0.00 0.00 0.00 94 1025.2
20260502043802 36 120 3.0 3.0 0.00 0.00 0.00 94 1025.2
20260502043601 36 120 2.0 3.0 0.00 0.00 0.00 94 1025.2
20260502043359 36 119 3.0 3.0 0.00 0.00 0.00 93 1025.2
20260502043259 36 119 2.0 3.0 0.00 0.00 0.00 93 1025.2
20260502043203 36 119 2.0 3.0 0.00 0.00 0.00 93 1025.2
20260502043059 36 119 2.0 3.0 0.00 0.00 0.00 93 1025.2
20260502043000 36 119 2.0 2.0 0.00 0.00 0.00 93 1025.2
20260502042902 36 119 1.0 2.0 0.00 0.00 0.00 93 1025.2
20260502042801 36 119 1.0 2.0 0.00 0.00 0.00 93 1025.2
20260502042700 36 119 1.0 2.0 0.00 0.00 0.00 93 1025.2
20260502042603 36 119 0.0 0.0 0.00 0.00 0.00 93 1025.2
20260502042502 36 119 0.0 0.0 0.00 0.00 0.00 93 1025.2
20260502042359 36 115 0.0 0.0 0.00 0.00 0.00 93 1025.2
20260502042305 36 115 0.0 1.0 0.00 0.00 0.00 93 1025.2
20260502042059 36 115 0.0 1.0 0.00 0.00 0.00 93 1025.2
20260502042003 36 115 0.0 1.0 0.00 0.00 0.00 93 1025.2
20260502041859 36 115 0.0 1.0 0.00 0.00 0.00 93 1025.2
20260502041801 36 115 0.0 1.0 0.00 0.00 0.00 93 1025.2
20260502041600 36 115 0.0 2.0 0.00 0.00 0.00 93 1025.2
20260502041500 36 115 0.0 2.0 0.00 0.00 0.00 93 1025.2
20260502041402 36 115 0.0 2.0 0.00 0.00 0.00 93 1025.1
20260502041259 36 115 1.0 2.0 0.00 0.00 0.00 93 1025.2
20260502041200 36 115 1.0 2.0 0.00 0.00 0.00 93 1025.2
20260502041105 36 115 0.0 2.0 0.00 0.00 0.00 93 1025.2
20260502040859 36 115 0.0 2.0 0.00 0.00 0.00 93 1025.2
20260502040659 36 115 1.0 3.0 0.00 0.00 0.00 93 1025.2
20260502040559 36 115 1.0 3.0 0.00 0.00 0.00 93 1025.2
20260502040506 36 115 2.0 3.0 0.00 0.00 0.00 93 1025.2
20260502040300 36 115 2.0 3.0 0.00 0.00 0.00 93 1025.2
20260502040203 36 115 2.0 3.0 0.00 0.00 0.00 93 1025.2
20260502040115 36 115 2.0 3.0 0.00 0.00 0.00 93 1025.2
20260502040002 36 115 2.0 3.0 0.00 0.00 0.00 93 1025.2
20260502035902 36 115 2.0 3.0 0.00 0.00 0.00 93 1025.2
20260502035801 36 114 2.0 2.0 0.00 0.00 0.00 93 1025.1
20260502035700 36 111 0.0 1.0 0.00 0.00 0.00 93 1025.1
20260502035602 36 109 0.0 1.0 0.00 0.00 0.00 93 1025.2
20260502035500 36 109 0.0 1.0 0.00 0.00 0.00 93 1025.1
20260502035400 36 109 0.0 1.0 0.00 0.00 0.00 93 1025.1
20260502035306 36 109 0.0 1.0 0.00 0.00 0.00 93 1025.1
20260502035100 36 109 0.0 2.0 0.00 0.00 0.00 93 1025.1
20260502035007 36 109 0.0 2.0 0.00 0.00 0.00 93 1025.1
20260502034705 36 109 0.0 2.0 0.00 0.00 0.00 92 1025.1
20260502034601 36 109 0.0 2.0 0.00 0.00 0.00 92 1025.0
20260502034501 36 109 0.0 2.0 0.00 0.00 0.00 92 1025.1
20260502034300 36 109 0.0 2.0 0.00 0.00 0.00 93 1025.0
20260502034159 36 109 1.0 2.0 0.00 0.00 0.00 92 1025.1
20260502034102 36 109 1.0 2.0 0.00 0.00 0.00 92 1025.1
20260502034001 36 109 1.0 2.0 0.00 0.00 0.00 92 1025.0
20260502033900 36 109 1.0 2.0 0.00 0.00 0.00 92 1025.0
20260502033802 36 109 0.0 2.0 0.00 0.00 0.00 92 1025.0
20260502033659 36 109 1.0 2.0 0.00 0.00 0.00 92 1025.0
20260502033559 36 109 0.0 2.0 0.00 0.00 0.00 92 1025.0
20260502033503 36 109 1.0 2.0 0.00 0.00 0.00 92 1025.0
20260502033259 36 109 0.0 2.0 0.00 0.00 0.00 92 1024.9
20260502033202 36 109 0.0 2.0 0.00 0.00 0.00 92 1024.9
20260502033059 36 109 0.0 2.0 0.00 0.00 0.00 92 1024.9
20260502033000 36 109 1.0 2.0 0.00 0.00 0.00 92 1024.9
20260502032903 36 109 1.0 1.0 0.00 0.00 0.00 92 1025.0
20260502032801 36 109 1.0 1.0 0.00 0.00 0.00 92 1025.0
20260502032659 36 109 1.0 1.0 0.00 0.00 0.00 92 1024.9
20260502032602 36 109 0.0 1.0 0.00 0.00 0.00 92 1024.9
20260502032500 36 109 1.0 1.0 0.00 0.00 0.00 92 1024.9
20260502032305 36 109 0.0 1.0 0.00 0.00 0.00 92 1024.9
20260502032159 36 109 0.0 2.0 0.00 0.00 0.00 92 1024.9
20260502032002 36 109 0.0 2.0 0.00 0.00 0.00 92 1024.9
20260502031900 36 109 0.0 2.0 0.00 0.00 0.00 93 1025.0
20260502031759 36 109 0.0 2.0 0.00 0.00 0.00 92 1025.0
20260502031702 36 109 0.0 2.0 0.00 0.00 0.00 92 1024.9
20260502031404 36 109 0.0 2.0 0.00 0.00 0.00 92 1024.9
20260502031159 36 109 2.0 2.0 0.00 0.00 0.00 92 1024.9
20260502031102 36 109 1.0 1.0 0.00 0.00 0.00 92 1024.9
20260502031000 36 109 0.0 0.0 0.00 0.00 0.00 92 1025.0
20260502030859 36 109 0.0 0.0 0.00 0.00 0.00 92 1025.0
20260502030802 36 109 0.0 0.0 0.00 0.00 0.00 92 1025.0
20260502030659 36 109 0.0 0.0 0.00 0.00 0.00 92 1025.0
20260502030559 36 109 0.0 0.0 0.00 0.00 0.00 92 1025.0
20260502030504 36 109 0.0 0.0 0.00 0.00 0.00 92 1025.0
20260502030301 36 109 0.0 1.0 0.00 0.00 0.00 92 1025.0
20260502030059 36 109 0.0 1.0 0.00 0.00 0.00 92 1025.0
20260502030004 36 109 0.0 1.0 0.00 0.00 0.00 92 1025.0
20260502025903 36 109 0.0 1.0 0.00 0.00 0.00 92 1025.0
20260502025759 36 109 0.0 1.0 0.00 0.00 0.00 92 1025.1
20260502025659 36 109 0.0 1.0 0.00 0.00 0.00 92 1025.1
20260502025602 36 109 0.0 1.0 0.00 0.00 0.00 92 1025.0
20260502025500 36 109 0.0 1.0 0.00 0.00 0.00 92 1025.1
20260502025359 36 109 0.0 1.0 0.00 0.00 0.00 92 1025.1
20260502025306 36 109 1.0 2.0 0.00 0.00 0.00 92 1025.1
20260502025159 36 109 0.0 2.0 0.00 0.00 0.00 92 1025.1
20260502025059 36 109 0.0 2.0 0.00 0.00 0.00 92 1025.1
20260502025002 36 109 0.0 2.0 0.00 0.00 0.00 92 1025.1
20260502024900 37 109 1.0 2.0 0.00 0.00 0.00 92 1025.1
20260502024759 37 109 0.0 2.0 0.00 0.00 0.00 92 1025.1
20260502024459 37 109 1.0 2.0 0.00 0.00 0.00 92 1025.1
20260502024402 37 109 1.0 2.0 0.00 0.00 0.00 92 1025.1
20260502024201 37 109 2.0 2.0 0.00 0.00 0.00 92 1025.1
20260502024105 37 109 1.0 2.0 0.00 0.00 0.00 92 1025.1
20260502024000 37 109 1.0 2.0 0.00 0.00 0.00 92 1025.1
20260502023859 36 109 1.0 2.0 0.00 0.00 0.00 92 1025.0
20260502023802 36 109 1.0 2.0 0.00 0.00 0.00 92 1025.0
20260502023659 36 109 1.0 2.0 0.00 0.00 0.00 92 1025.0
20260502023600 37 109 1.0 2.0 0.00 0.00 0.00 92 1025.1
20260502023504 37 109 1.0 2.0 0.00 0.00 0.00 92 1025.1
20260502023359 37 109 2.0 2.0 0.00 0.00 0.00 92 1025.1
20260502023301 37 109 0.0 2.0 0.00 0.00 0.00 92 1025.1
20260502023203 37 109 0.0 2.0 0.00 0.00 0.00 92 1025.1
20260502023100 37 109 1.0 2.0 0.00 0.00 0.00 92 1025.1
20260502023000 37 109 1.0 3.0 0.00 0.00 0.00 92 1025.1
20260502022902 37 109 2.0 3.0 0.00 0.00 0.00 92 1025.1
20260502022759 37 109 1.0 3.0 0.00 0.00 0.00 92 1025.1
20260502022659 37 109 2.0 3.0 0.00 0.00 0.00 92 1025.1
20260502022603 37 109 1.0 3.0 0.00 0.00 0.00 92 1025.1
20260502022459 37 109 0.0 4.0 0.00 0.00 0.00 92 1025.1
20260502022359 37 109 0.0 4.0 0.00 0.00 0.00 92 1025.1
20260502022306 37 109 0.0 4.0 0.00 0.00 0.00 92 1025.1
20260502022159 37 109 0.0 4.0 0.00 0.00 0.00 92 1025.1
20260502022100 37 109 1.0 4.0 0.00 0.00 0.00 92 1025.1
20260502022002 37 109 2.0 4.0 0.00 0.00 0.00 92 1025.2
20260502021859 37 109 0.0 4.0 0.00 0.00 0.00 92 1025.1
20260502021703 37 115 2.0 4.0 0.00 0.00 0.00 92 1025.2
20260502021602 37 115 3.0 4.0 0.00 0.00 0.00 92 1025.2
20260502021500 37 115 3.0 4.0 0.00 0.00 0.00 92 1025.2
20260502021405 37 115 3.0 5.0 0.00 0.00 0.00 92 1025.2
20260502021300 37 115 1.0 5.0 0.00 0.00 0.00 92 1025.2
20260502021200 37 115 3.0 5.0 0.00 0.00 0.00 92 1025.2
20260502021104 37 115 1.0 5.0 0.00 0.00 0.00 92 1025.2
20260502021001 37 115 1.0 5.0 0.00 0.00 0.00 92 1025.1
20260502020900 37 115 1.0 5.0 0.00 0.00 0.00 92 1025.2
20260502020802 37 115 2.0 5.0 0.00 0.00 0.00 92 1025.2
20260502020659 37 115 0.0 5.0 0.00 0.00 0.00 92 1025.2
20260502020359 36 119 4.0 5.0 0.00 0.00 0.00 92 1025.2
20260502020259 36 232 2.0 4.0 0.00 0.00 0.00 92 1025.3
20260502020203 36 232 1.0 4.0 0.00 0.00 0.00 92 1025.2
20260502020111 36 232 2.0 4.0 0.00 0.00 0.00 92 1025.2
20260502020003 36 232 1.0 4.0 0.00 0.00 0.00 92 1025.2
20260502015759 36 232 2.0 4.0 0.00 0.00 0.00 92 1025.2
20260502015659 36 232 3.0 3.0 0.00 0.00 0.00 92 1025.2
20260502015602 36 232 3.0 3.0 0.00 0.00 0.00 92 1025.2
20260502015500 36 232 2.0 3.0 0.00 0.00 0.00 92 1025.2
20260502015359 36 232 3.0 3.0 0.00 0.00 0.00 92 1025.2
20260502015200 36 146 2.0 3.0 0.00 0.00 0.00 92 1025.3
20260502015059 36 146 1.0 3.0 0.00 0.00 0.00 92 1025.3
20260502015005 36 146 0.0 3.0 0.00 0.00 0.00 92 1025.3
20260502014901 36 146 0.0 4.0 0.00 0.00 0.00 92 1025.3
20260502014759 36 146 0.0 5.0 0.00 0.00 0.00 92 1025.3
20260502014559 36 146 0.0 5.0 0.00 0.00 0.00 92 1025.4
20260502014500 36 146 1.0 5.0 0.00 0.00 0.00 92 1025.4
20260502014402 36 146 2.0 5.0 0.00 0.00 0.00 92 1025.4
20260502014159 36 217 0.0 5.0 0.00 0.00 0.00 92 1025.3
20260502014102 36 217 2.0 5.0 0.00 0.00 0.00 92 1025.3
20260502014000 36 217 2.0 5.0 0.00 0.00 0.00 92 1025.3
20260502013803 36 217 3.0 4.0 0.00 0.00 0.00 92 1025.3
20260502013659 36 217 3.0 4.0 0.00 0.00 0.00 92 1025.3
20260502013559 36 170 3.0 3.0 0.00 0.00 0.00 92 1025.3
20260502013502 36 170 3.0 3.0 0.00 0.00 0.00 92 1025.3
20260502013359 36 170 3.0 3.0 0.00 0.00 0.00 92 1025.3
20260502013259 36 170 3.0 3.0 0.00 0.00 0.00 92 1025.3
20260502013203 36 170 2.0 3.0 0.00 0.00 0.00 92 1025.3
20260502013059 36 170 3.0 3.0 0.00 0.00 0.00 92 1025.3
20260502013001 36 55 2.0 3.0 0.00 0.00 0.00 92 1025.3
20260502012903 36 55 1.0 2.0 0.00 0.00 0.00 92 1025.4
20260502012759 36 55 2.0 2.0 0.00 0.00 0.00 92 1025.3
20260502012659 37 55 1.0 1.0 0.00 0.00 0.00 92 1025.4
20260502012602 37 55 0.0 0.0 0.00 0.00 0.00 92 1025.4
20260502012459 36 55 0.0 0.0 0.00 0.00 0.00 92 1025.4
20260502012359 37 55 0.0 1.0 0.00 0.00 0.00 92 1025.4
20260502012306 37 55 0.0 2.0 0.00 0.00 0.00 92 1025.4
20260502012159 37 55 0.0 2.0 0.00 0.00 0.00 92 1025.4
20260502012003 37 55 0.0 2.0 0.00 0.00 0.00 92 1025.4
20260502011859 37 55 0.0 2.0 0.00 0.00 0.00 92 1025.4
20260502011559 37 55 0.0 2.0 0.00 0.00 0.00 92 1025.4
20260502011459 37 55 0.0 2.0 0.00 0.00 0.00 92 1025.4
20260502011259 37 55 2.0 2.0 0.00 0.00 0.00 92 1025.4
20260502011159 37 55 1.0 2.0 0.00 0.00 0.00 92 1025.3
20260502011102 37 55 0.0 2.0 0.00 0.00 0.00 92 1025.3
20260502011001 37 55 0.0 2.0 0.00 0.00 0.00 92 1025.3
20260502010900 37 55 1.0 2.0 0.00 0.00 0.00 92 1025.3
20260502010802 37 55 1.0 2.0 0.00 0.00 0.00 92 1025.4
20260502010659 37 55 2.0 2.0 0.00 0.00 0.00 92 1025.4
20260502010502 37 55 2.0 2.0 0.00 0.00 0.00 92 1025.4
20260502010300 37 55 0.0 1.0 0.00 0.00 0.00 91 1025.4
20260502010203 37 55 1.0 1.0 0.00 0.00 0.00 91 1025.4
20260502010005 37 55 1.0 1.0 0.00 0.00 0.00 91 1025.3
20260502005905 37 55 0.0 1.0 0.00 0.00 0.00 91 1025.3
20260502005759 37 55 0.0 1.0 0.00 0.00 0.00 91 1025.3
20260502005659 37 55 0.0 1.0 0.00 0.00 0.00 91 1025.3
20260502005602 37 55 0.0 1.0 0.00 0.00 0.00 91 1025.4
20260502005500 37 55 0.0 1.0 0.00 0.00 0.00 91 1025.3
20260502005401 37 55 0.0 1.0 0.00 0.00 0.00 91 1025.4
20260502005305 37 55 0.0 1.0 0.00 0.00 0.00 91 1025.3
20260502005200 37 55 0.0 1.0 0.00 0.00 0.00 91 1025.4
20260502005100 37 55 0.0 1.0 0.00 0.00 0.00 91 1025.4
20260502005005 37 55 0.0 1.0 0.00 0.00 0.00 91 1025.4
20260502004900 37 55 0.0 1.0 0.00 0.00 0.00 91 1025.4
20260502004801 37 55 1.0 1.0 0.00 0.00 0.00 91 1025.4
20260502004703 37 55 0.0 1.0 0.00 0.00 0.00 91 1025.4
20260502004600 37 55 0.0 1.0 0.00 0.00 0.00 91 1025.5
20260502004459 37 55 0.0 1.0 0.00 0.00 0.00 91 1025.4
20260502004403 37 55 0.0 1.0 0.00 0.00 0.00 91 1025.4
20260502004259 37 55 0.0 2.0 0.00 0.00 0.00 91 1025.5
20260502004208 37 55 0.0 2.0 0.00 0.00 0.00 91 1025.5
20260502004104 37 55 1.0 2.0 0.00 0.00 0.00 91 1025.5
20260502004005 37 55 1.0 3.0 0.00 0.00 0.00 91 1025.5
20260502003906 37 55 0.0 3.0 0.00 0.00 0.00 91 1025.4
20260502003804 37 55 0.0 3.0 0.00 0.00 0.00 91 1025.4
20260502003700 37 55 0.0 3.0 0.00 0.00 0.00 91 1025.5
20260502003600 37 55 0.0 4.0 0.00 0.00 0.00 91 1025.4
20260502003359 37 55 0.0 4.0 0.00 0.00 0.00 91 1025.5
20260502003205 37 55 1.0 4.0 0.00 0.00 0.00 91 1025.5
20260502003101 37 55 1.0 4.0 0.00 0.00 0.00 91 1025.5
20260502003002 37 55 2.0 4.0 0.00 0.00 0.00 91 1025.5
20260502002700 37 55 3.0 4.0 0.00 0.00 0.00 91 1025.5
20260502002605 37 55 3.0 4.0 0.00 0.00 0.00 91 1025.5
20260502002500 37 78 3.0 3.0 0.00 0.00 0.00 91 1025.5
20260502002359 37 78 2.0 3.0 0.00 0.00 0.00 91 1025.5
20260502002305 37 78 2.0 3.0 0.00 0.00 0.00 91 1025.5
20260502002159 37 78 2.0 3.0 0.00 0.00 0.00 91 1025.5
20260502002100 37 78 2.0 3.0 0.00 0.00 0.00 91 1025.5
20260502002003 37 189 1.0 2.0 0.00 0.00 0.00 91 1025.5
20260502001900 37 189 1.0 2.0 0.00 0.00 0.00 91 1025.5
20260502001600 37 189 1.0 1.0 0.00 0.00 0.00 91 1025.4
20260502001500 37 189 0.0 1.0 0.00 0.00 0.00 90 1025.5
20260502001402 37 189 0.0 1.0 0.00 0.00 0.00 90 1025.5
20260502001159 37 189 1.0 1.0 0.00 0.00 0.00 91 1025.5
20260502001102 37 189 0.0 0.0 0.00 0.00 0.00 91 1025.5
20260502001000 37 189 0.0 1.0 0.00 0.00 0.00 90 1025.5
20260502000803 37 189 0.0 2.0 0.00 0.00 0.00 90 1025.5
20260502000700 37 189 0.0 2.0 0.00 0.00 0.00 90 1025.5
20260502000559 37 189 0.0 2.0 0.00 0.00 0.00 90 1025.5
20260502000504 37 189 0.0 2.0 0.00 0.00 0.00 90 1025.5
20260502000402 37 189 0.0 2.0 0.00 0.00 0.00 90 1025.5
20260502000302 37 189 0.0 2.0 0.00 0.00 0.00 90 1025.5
20260502000203 37 189 0.0 2.0 0.00 0.00 0.00 90 1025.6
20260502000113 37 189 0.0 2.0 0.00 0.00 0.00 90 1025.6
20260502000005 37 189 0.0 2.0 0.00 0.00 0.00 90 1025.6
20260501235904 37 189 1.0 2.0 0.00 0.00 0.00 90 1025.6
20260501235702 37 189 1.0 2.0 0.00 0.00 0.00 90 1025.6
20260501235602 37 189 2.0 2.0 0.00 0.00 0.00 90 1025.6
20260501235504 37 189 1.0 2.0 0.00 0.00 0.00 90 1025.6
20260501235401 37 189 1.0 2.0 0.00 0.00 0.00 90 1025.6
20260501235306 38 189 0.0 2.0 0.00 0.00 0.00 90 1025.6
20260501235200 37 189 1.0 2.0 0.00 0.00 0.00 90 1025.6
20260501235100 38 189 0.0 2.0 0.00 0.00 0.00 90 1025.7
20260501235007 38 189 0.0 2.0 0.00 0.00 0.00 90 1025.7
20260501234900 37 189 0.0 2.0 0.00 0.00 0.00 90 1025.6
20260501234702 38 189 1.0 2.0 0.00 0.00 0.00 90 1025.6
20260501234600 38 189 1.0 2.0 0.00 0.00 0.00 90 1025.6
20260501234500 38 189 1.0 2.0 0.00 0.00 0.00 90 1025.6
20260501234402 37 189 1.0 2.0 0.00 0.00 0.00 90 1025.6
20260501234300 37 189 2.0 3.0 0.00 0.00 0.00 90 1025.6
20260501234200 37 189 1.0 3.0 0.00 0.00 0.00 90 1025.6
20260501234103 37 189 1.0 3.0 0.00 0.00 0.00 90 1025.5
20260501234000 37 189 1.0 3.0 0.00 0.00 0.00 89 1025.6
20260501233900 37 189 1.0 3.0 0.00 0.00 0.00 90 1025.6
20260501233803 37 189 1.0 3.0 0.00 0.00 0.00 90 1025.6
20260501233700 38 189 2.0 3.0 0.00 0.00 0.00 90 1025.6
20260501233600 38 189 2.0 3.0 0.00 0.00 0.00 90 1025.7
20260501233503 38 189 1.0 3.0 0.00 0.00 0.00 89 1025.7
20260501233300 38 189 2.0 3.0 0.00 0.00 0.00 89 1025.7
20260501233100 38 189 2.0 3.0 0.00 0.00 0.00 89 1025.6
20260501233001 38 189 2.0 2.0 0.00 0.00 0.00 89 1025.6
20260501232903 38 189 2.0 2.0 0.00 0.00 0.00 89 1025.7
20260501232759 38 189 2.0 2.0 0.00 0.00 0.00 89 1025.7
20260501232701 38 189 1.0 3.0 0.00 0.00 0.00 89 1025.7
20260501232359 38 189 1.0 4.0 0.00 0.00 0.00 89 1025.7
20260501232100 38 189 1.0 4.0 0.00 0.00 0.00 89 1025.7
20260501232003 38 189 0.0 4.0 0.00 0.00 0.00 89 1025.8
20260501231859 38 189 1.0 4.0 0.00 0.00 0.00 89 1025.7
20260501231800 38 189 2.0 4.0 0.00 0.00 0.00 89 1025.7
20260501231703 38 189 3.0 4.0 0.00 0.00 0.00 89 1025.7
20260501231600 38 189 2.0 4.0 0.00 0.00 0.00 89 1025.7
20260501231500 38 189 3.0 4.0 0.00 0.00 0.00 89 1025.7
20260501231403 38 125 3.0 4.0 0.00 0.00 0.00 89 1025.7
20260501231300 38 125 2.0 3.0 0.00 0.00 0.00 89 1025.7
20260501231200 38 125 3.0 3.0 0.00 0.00 0.00 89 1025.6
20260501231102 38 125 3.0 3.0 0.00 0.00 0.00 89 1025.6
20260501230802 38 125 2.0 3.0 0.00 0.00 0.00 89 1025.7
20260501230700 38 125 1.0 3.0 0.00 0.00 0.00 89 1025.6
20260501230559 38 125 0.0 2.0 0.00 0.00 0.00 89 1025.6
20260501230400 38 125 1.0 2.0 0.00 0.00 0.00 89 1025.6
20260501230259 38 125 1.0 2.0 0.00 0.00 0.00 89 1025.7
20260501225902 38 125 1.0 2.0 0.00 0.00 0.00 89 1025.7
20260501225759 38 125 1.0 2.0 0.00 0.00 0.00 89 1025.7
20260501225359 38 125 0.0 2.0 0.00 0.00 0.00 89 1025.6
20260501225305 38 125 1.0 2.0 0.00 0.00 0.00 89 1025.6
20260501225100 38 125 0.0 2.0 0.00 0.00 0.00 89 1025.7
20260501225004 39 125 0.0 2.0 0.00 0.00 0.00 89 1025.7
20260501224859 39 125 1.0 2.0 0.00 0.00 0.00 89 1025.7
20260501224800 39 125 1.0 2.0 0.00 0.00 0.00 89 1025.6
20260501224703 39 125 1.0 2.0 0.00 0.00 0.00 89 1025.7
20260501224601 39 125 0.0 2.0 0.00 0.00 0.00 89 1025.8
20260501224501 39 125 0.0 3.0 0.00 0.00 0.00 89 1025.8
20260501224403 39 125 0.0 4.0 0.00 0.00 0.00 89 1025.7
20260501224300 39 125 0.0 4.0 0.00 0.00 0.00 89 1025.8
20260501224103 39 125 0.0 4.0 0.00 0.00 0.00 89 1025.8
20260501223859 39 125 2.0 4.0 0.00 0.00 0.00 89 1025.8
20260501223700 39 125 1.0 4.0 0.00 0.00 0.00 89 1025.8
20260501223559 39 125 2.0 4.0 0.00 0.00 0.00 89 1025.7
20260501223503 38 118 3.0 4.0 0.00 0.00 0.00 89 1025.7
20260501223259 38 205 1.0 3.0 0.00 0.00 0.00 89 1025.6
20260501223202 38 205 2.0 3.0 0.00 0.00 0.00 88 1025.6
20260501223000 38 205 2.0 2.0 0.00 0.00 0.00 88 1025.6
20260501222902 38 205 2.0 2.0 0.00 0.00 0.00 88 1025.6
20260501222759 38 205 1.0 2.0 0.00 0.00 0.00 88 1025.6
20260501222700 38 205 1.0 2.0 0.00 0.00 0.00 88 1025.6
20260501222602 38 205 1.0 2.0 0.00 0.00 0.00 88 1025.6
20260501222500 38 205 2.0 2.0 0.00 0.00 0.00 88 1025.6
20260501222400 39 205 2.0 2.0 0.00 0.00 0.00 88 1025.6
20260501222305 39 205 1.0 2.0 0.00 0.00 0.00 88 1025.6
20260501222200 39 205 1.0 2.0 0.00 0.00 0.00 88 1025.6
20260501222100 39 205 2.0 2.0 0.00 0.00 0.00 87 1025.6
20260501221900 39 205 1.0 2.0 0.00 0.00 0.00 87 1025.6
20260501221800 39 205 1.0 2.0 0.00 0.00 0.00 87 1025.6
20260501221703 39 205 2.0 2.0 0.00 0.00 0.00 87 1025.6
20260501221459 39 205 1.0 1.0 0.00 0.00 0.00 87 1025.6
20260501221403 39 205 0.0 1.0 0.00 0.00 0.00 87 1025.6
20260501221259 39 205 0.0 0.0 0.00 0.00 0.00 87 1025.6
20260501221102 39 205 0.0 1.0 0.00 0.00 0.00 87 1025.5
20260501221000 39 205 0.0 1.0 0.00 0.00 0.00 87 1025.6
20260501220900 39 205 0.0 1.0 0.00 0.00 0.00 87 1025.5
20260501220806 39 205 0.0 1.0 0.00 0.00 0.00 87 1025.6
20260501220700 39 205 0.0 1.0 0.00 0.00 0.00 87 1025.5
20260501220600 39 205 0.0 1.0 0.00 0.00 0.00 87 1025.5
20260501220505 39 205 0.0 1.0 0.00 0.00 0.00 87 1025.5
20260501220400 39 205 0.0 1.0 0.00 0.00 0.00 87 1025.5
20260501220300 39 205 0.0 1.0 0.00 0.00 0.00 87 1025.5
20260501220011 39 205 1.0 1.0 0.00 0.00 0.00 87 1025.4
20260501215700 40 205 0.0 1.0 0.00 0.00 0.00 87 1025.4
20260501215607 40 205 0.0 1.0 0.00 0.00 0.00 87 1025.4
20260501215401 40 205 0.0 1.0 0.00 0.00 0.00 87 1025.3
20260501215306 40 205 0.0 1.0 0.00 0.00 0.00 87 1025.3
20260501215202 40 205 0.0 1.0 0.00 0.00 0.00 87 1025.3
20260501215102 40 205 0.0 1.0 0.00 0.00 0.00 86 1025.3
20260501215009 40 205 0.0 1.0 0.00 0.00 0.00 86 1025.3
20260501214901 40 205 0.0 1.0 0.00 0.00 0.00 86 1025.3
20260501214801 40 205 0.0 1.0 0.00 0.00 0.00 86 1025.3
20260501214704 40 205 0.0 1.0 0.00 0.00 0.00 86 1025.3
20260501214501 40 205 0.0 1.0 0.00 0.00 0.00 86 1025.2
20260501214403 40 205 0.0 1.0 0.00 0.00 0.00 86 1025.2
20260501214301 40 205 0.0 1.0 0.00 0.00 0.00 86 1025.3
20260501214103 40 205 0.0 1.0 0.00 0.00 0.00 86 1025.3
20260501214002 40 205 1.0 1.0 0.00 0.00 0.00 86 1025.3
20260501213901 40 205 0.0 1.0 0.00 0.00 0.00 86 1025.2
20260501213804 40 205 0.0 1.0 0.00 0.00 0.00 86 1025.2
20260501213701 40 205 0.0 1.0 0.00 0.00 0.00 86 1025.2
20260501213504 40 205 0.0 1.0 0.00 0.00 0.00 86 1025.2
20260501213401 40 205 0.0 1.0 0.00 0.00 0.00 86 1025.2
20260501213300 40 205 0.0 0.0 0.00 0.00 0.00 86 1025.2
20260501213204 40 205 0.0 0.0 0.00 0.00 0.00 86 1025.2
20260501213100 40 205 0.0 0.0 0.00 0.00 0.00 86 1025.2
20260501213001 40 205 0.0 0.0 0.00 0.00 0.00 86 1025.2
20260501212903 40 205 0.0 1.0 0.00 0.00 0.00 86 1025.2
20260501212800 40 205 0.0 1.0 0.00 0.00 0.00 86 1025.2
20260501212700 40 205 0.0 1.0 0.00 0.00 0.00 85 1025.2
20260501212604 40 205 0.0 1.0 0.00 0.00 0.00 85 1025.2
20260501212501 40 205 0.0 1.0 0.00 0.00 0.00 85 1025.2
20260501212404 40 205 0.0 1.0 0.00 0.00 0.00 85 1025.2
20260501212306 40 205 0.0 1.0 0.00 0.00 0.00 85 1025.2
20260501212200 41 205 0.0 1.0 0.00 0.00 0.00 85 1025.1
20260501212100 41 205 0.0 1.0 0.00 0.00 0.00 85 1025.1
20260501212006 41 205 0.0 2.0 0.00 0.00 0.00 85 1025.1
20260501211900 41 205 0.0 2.0 0.00 0.00 0.00 85 1025.1
20260501211801 41 205 1.0 655.0 0.69 0.00 0.00 85
20260501211703 41 205 1.0 2.0 0.00 0.00 0.00 85 1025.1
20260501211601 41 205 1.0 2.0 0.00 0.00 0.00 85 1025.1
20260501211501 41 205 0.0 2.0 0.00 0.00 0.00 85 1025.2
20260501211403 41 205 0.0 2.0 0.00 0.00 0.00 85 1025.1
20260501211201 41 205 1.0 2.0 0.00 0.00 0.00 84 1025.1
20260501211103 41 205 1.0 2.0 0.00 0.00 0.00 84 1025.1
20260501211001 41 205 1.0 2.0 0.00 0.00 0.00 84 1025.1
20260501210900 41 205 1.0 2.0 0.00 0.00 0.00 84 1025.1
20260501210803 41 205 2.0 2.0 0.00 0.00 0.00 83 1025.1
20260501210700 41 205 1.0 2.0 0.00 0.00 0.00 83 1025.1
20260501210600 41 205 1.0 2.0 0.00 0.00 0.00 83 1025.1
20260501210504 41 205 1.0 2.0 0.00 0.00 0.00 83 1025.0
20260501210401 41 205 1.0 2.0 0.00 0.00 0.00 83 1025.1
20260501210301 41 205 1.0 2.0 0.00 0.00 0.00 83 1025.1
20260501210203 41 205 1.0 2.0 0.00 0.00 0.00 82 1025.1
20260501210101 42 205 1.0 2.0 0.00 0.00 0.00 82 1025.1
20260501210004 42 205 1.0 2.0 0.00 0.00 0.00 82 1025.1
20260501205903 42 205 1.0 2.0 0.00 0.00 0.00 82 1025.1
20260501205800 42 205 2.0 2.0 0.00 0.00 0.00 82 1025.0
20260501205700 42 205 1.0 2.0 0.00 0.00 0.00 82 1025.1
20260501205603 42 205 1.0 2.0 0.00 0.00 0.00 81 1025.1
20260501205500 42 205 1.0 2.0 0.00 0.00 0.00 81 1025.1
20260501205400 42 205 1.0 2.0 0.00 0.00 0.00 81 1025.1
20260501205201 42 205 0.0 2.0 0.00 0.00 0.00 81 1025.0
20260501205101 42 205 0.0 2.0 0.00 0.00 0.00 81 1025.0
20260501205006 42 205 0.0 2.0 0.00 0.00 0.00 81 1025.0
20260501204901 42 205 1.0 3.0 0.00 0.00 0.00 81 1025.0
20260501204801 42 205 0.0 3.0 0.00 0.00 0.00 80 1025.0
20260501204703 42 205 0.0 3.0 0.00 0.00 0.00 80 1025.0
20260501204601 42 205 0.0 3.0 0.00 0.00 0.00 80 1025.0
20260501204501 42 205 1.0 3.0 0.00 0.00 0.00 80 1025.0
20260501204403 42 205 2.0 3.0 0.00 0.00 0.00 80 1025.0
20260501204202 42 205 2.0 3.0 0.00 0.00 0.00 80 1025.0
20260501204106 42 205 2.0 3.0 0.00 0.00 0.00 80 1025.0
20260501204001 42 205 2.0 3.0 0.00 0.00 0.00 80 1025.0
20260501203900 42 205 2.0 3.0 0.00 0.00 0.00 80 1025.0
20260501203803 43 205 3.0 3.0 0.00 0.00 0.00 79 1025.0
20260501203701 43 205 2.0 2.0 0.00 0.00 0.00 79 1025.0
20260501203503 43 205 2.0 2.0 0.00 0.00 0.00 79 1025.0
20260501203400 43 205 1.0 2.0 0.00 0.00 0.00 78 1025.0
20260501203300 43 205 0.0 2.0 0.00 0.00 0.00 78 1025.0
20260501203203 43 205 1.0 2.0 0.00 0.00 0.00 78 1024.9
20260501203100 43 205 2.0 2.0 0.00 0.00 0.00 78 1024.9
20260501203003 43 205 0.0 2.0 0.00 0.00 0.00 79 1024.9
20260501202800 43 205 0.0 2.0 0.00 0.00 0.00 78 1024.9
20260501202701 43 205 0.0 2.0 0.00 0.00 0.00 78 1024.9
20260501202603 43 205 0.0 2.0 0.00 0.00 0.00 78 1024.9
20260501202501 43 205 1.0 2.0 0.00 0.00 0.00 78 1024.9
20260501202400 43 205 1.0 2.0 0.00 0.00 0.00 78 1024.9
20260501202306 43 205 1.0 2.0 0.00 0.00 0.00 78 1024.9
20260501202200 43 205 1.0 2.0 0.00 0.00 0.00 78 1024.9
20260501202101 44 205 1.0 2.0 0.00 0.00 0.00 78 1024.9
20260501202004 44 205 0.0 2.0 0.00 0.00 0.00 78 1024.9
20260501201901 44 205 0.0 2.0 0.00 0.00 0.00 78 1024.9
20260501201800 44 205 0.0 2.0 0.00 0.00 0.00 78 1024.8
20260501201703 44 205 1.0 2.0 0.00 0.00 0.00 78 1024.8
20260501201601 44 205 1.0 2.0 0.00 0.00 0.00 77 1024.9
20260501201500 44 205 1.0 2.0 0.00 0.00 0.00 77 1024.9
20260501201403 44 205 2.0 2.0 0.00 0.00 0.00 77 1024.9
20260501201300 44 205 1.0 4.0 0.00 0.00 0.00 76 1024.9
20260501201200 45 205 1.0 4.0 0.00 0.00 0.00 76 1024.9
20260501201103 45 205 1.0 4.0 0.00 0.00 0.00 76 1024.9
20260501201001 45 205 1.0 4.0 0.00 0.00 0.00 76 1024.9
20260501200900 45 205 0.0 4.0 0.00 0.00 0.00 75 1024.9
20260501200804 45 205 0.0 4.0 0.00 0.00 0.00 75 1024.9
20260501200600 45 205 2.0 5.0 0.00 0.00 0.00 75 1024.9
20260501200504 45 205 2.0 5.0 0.00 0.00 0.00 75 1024.8
20260501200400 45 205 2.0 5.0 0.00 0.00 0.00 75 1024.9
20260501200300 45 205 3.0 5.0 0.00 0.00 0.00 74 1024.8
20260501200206 45 205 3.0 5.0 0.00 0.00 0.00 74 1024.8
20260501200118 46 205 3.0 5.0 0.00 0.00 0.00 74 1024.8
20260501200006 46 205 3.0 5.0 0.00 0.00 0.00 74 1024.8
20260501195906 46 205 3.0 5.0 0.00 0.00 0.00 73 1024.8
20260501195803 46 205 4.0 5.0 0.00 0.00 0.00 73 1024.8
20260501195603 46 205 4.0 6.0 0.00 0.00 0.00 72 1024.8
20260501195501 46 205 4.0 6.0 0.00 0.00 0.00 72 1024.8
20260501195401 46 225 3.0 6.0 0.00 0.00 0.00 72 1024.8
20260501195306 46 225 3.0 6.0 0.00 0.00 0.00 71 1024.8
20260501195201 46 225 3.0 6.0 0.00 0.00 0.00 71 1024.8
20260501195100 46 225 3.0 6.0 0.00 0.00 0.00 71 1024.7
20260501195005 46 225 4.0 6.0 0.00 0.00 0.00 70 1024.7
20260501194900 46 225 4.0 6.0 0.00 0.00 0.00 70 1024.7
20260501194800 46 225 5.0 6.0 0.00 0.00 0.00 70 1024.7
20260501194703 46 225 5.0 6.0 0.00 0.00 0.00 71 1024.7
20260501194601 46 225 4.0 6.0 0.00 0.00 0.00 71 1024.7
20260501194500 46 225 4.0 6.0 0.00 0.00 0.00 71 1024.6
20260501194300 46 230 4.0 6.0 0.00 0.00 0.00 72 1024.6
20260501194106 46 230 5.0 6.0 0.00 0.00 0.00 72 1024.6
20260501194001 46 229 4.0 6.0 0.00 0.00 0.00 72 1024.6
20260501193900 46 225 4.0 6.0 0.00 0.00 0.00 72 1024.6
20260501193803 46 240 4.0 6.0 0.00 0.00 0.00 72 1024.6
20260501193701 46 233 5.0 6.0 0.00 0.00 0.00 72 1024.6
20260501193602 46 240 5.0 5.0 0.00 0.00 0.00 72 1024.6
20260501193505 46 242 5.0 5.0 0.00 0.00 0.00 72 1024.6
20260501193400 46 240 2.0 5.0 0.00 0.00 0.00 72 1024.6
20260501193303 47 262 3.0 5.0 0.00 0.00 0.00 73 1024.6
20260501193205 47 244 1.0 5.0 0.00 0.00 0.00 73 1024.6
20260501193102 47 238 4.0 5.0 0.00 0.00 0.00 73 1024.6
20260501193002 47 227 4.0 5.0 0.00 0.00 0.00 72 1024.6
20260501192906 47 219 4.0 5.0 0.00 0.00 0.00 72 1024.6
20260501192801 47 223 4.0 4.0 0.00 0.00 0.00 71 1024.5
20260501192701 47 259 3.0 4.0 0.00 0.00 0.00 71 1024.6
20260501192605 47 259 3.0 4.0 0.00 0.00 0.00 71 1024.6
20260501192306 48 259 1.0 4.0 0.00 0.00 0.00 71 1024.6
20260501192007 48 259 1.0 4.0 0.00 0.00 0.00 70 1024.6
20260501191900 48 259 1.0 4.0 0.00 0.00 0.00 70 1024.6
20260501191708 48 259 2.0 4.0 0.00 0.00 0.00 70 1024.6
20260501191601 48 259 2.0 4.0 0.00 0.00 0.00 70 1024.5
20260501191502 48 259 2.0 4.0 0.00 0.00 0.00 70 1024.5
20260501191403 48 259 2.0 4.0 0.00 0.00 0.00 70 1024.5
20260501191300 49 259 3.0 4.0 0.00 0.00 0.00 69 1024.5
20260501191200 49 259 2.0 4.0 0.00 0.00 0.00 69 1024.4
20260501191104 49 259 2.0 4.0 0.00 0.00 0.00 69 1024.4
20260501190900 49 259 2.0 4.0 0.00 0.00 0.00 68 1024.4
20260501190700 49 259 2.0 4.0 0.00 0.00 0.00 68 1024.4
20260501190601 49 259 3.0 4.0 0.00 0.00 0.00 68 1024.4
20260501190504 49 259 4.0 4.0 0.00 0.00 0.00 68 1024.4
20260501190402 49 259 3.0 4.0 0.00 0.00 0.00 68 1024.3
20260501190204 49 259 4.0 4.0 0.00 0.00 0.00 67 1024.4
20260501190101 49 259 4.0 4.0 0.00 0.00 0.00 67 1024.4
20260501190004 49 259 2.0 4.0 0.00 0.00 0.00 67 1024.3
20260501185905 50 259 2.0 4.0 0.00 0.00 0.00 66 1024.3
20260501185801 50 257 3.0 4.0 0.00 0.00 0.00 65 1024.3
20260501185701 50 179 2.0 4.0 0.00 0.00 0.00 64 1024.3
20260501185502 50 179 1.0 4.0 0.00 0.00 0.00 63 1024.3
20260501185305 50 179 1.0 5.0 0.00 0.00 0.00 62 1024.3
20260501185100 50 179 2.0 5.0 0.00 0.00 0.00 62 1024.2
20260501185004 51 179 2.0 5.0 0.00 0.00 0.00 62 1024.2
20260501184900 51 179 2.0 5.0 0.00 0.00 0.00 62 1024.2
20260501184800 51 179 2.0 5.0 0.00 0.00 0.00 61 1024.2
20260501184600 51 179 4.0 5.0 0.00 0.00 0.00 61 1024.1
20260501184500 51 179 4.0 5.0 0.00 0.00 0.00 61 1024.2
20260501184403 51 179 4.0 5.0 0.00 0.00 0.00 61 1024.1
20260501184302 52 179 4.0 5.0 0.00 0.00 0.00 61 1024.1
20260501184203 52 179 4.0 5.0 0.00 0.00 0.00 60 1024.2
20260501184103 52 179 3.0 5.0 0.00 0.00 0.00 60 1024.1
20260501183903 52 179 3.0 5.0 0.00 0.00 0.00 59 1024.1
20260501183805 52 179 3.0 5.0 0.00 0.00 0.00 59 1024.1
20260501183701 53 179 4.0 5.0 0.00 0.00 0.00 59 1024.1
20260501183601 53 179 3.0 5.0 0.00 0.00 0.00 58 1024.0
20260501183507 53 179 4.0 5.0 0.00 0.00 0.00 58 1024.0
20260501183400 53 179 3.0 5.0 0.00 0.00 0.00 59 1024.0
20260501183300 54 179 4.0 5.0 0.00 0.00 0.00 58 1024.0
20260501183203 54 179 4.0 5.0 0.00 0.00 0.00 58 1024.0
20260501183100 54 179 4.0 5.0 0.00 0.00 0.00 57 1024.0
20260501183002 54 179 4.0 5.0 0.00 0.00 0.00 56 1024.0
20260501182906 54 179 4.0 5.0 0.00 0.00 0.00 55 1024.0
20260501182802 55 179 3.0 5.0 0.00 0.00 0.00 55 1024.0
20260501182701 55 179 4.0 5.0 0.00 0.00 0.00 55 1024.0
20260501182607 55 179 4.0 6.0 0.00 0.00 0.00 54 1024.0
20260501182502 55 179 4.0 6.0 0.00 0.00 0.00 54 1024.1
20260501182306 56 179 4.0 6.0 0.00 0.00 0.00 54 1024.0
20260501182204 56 179 4.0 6.0 0.00 0.00 0.00 53 1024.0
20260501182101 56 179 4.0 6.0 0.00 0.00 0.00 53 1024.0
20260501182007 56 179 3.0 6.0 0.00 0.00 0.00 53 1024.0
20260501181804 57 178 4.0 6.0 0.00 0.00 0.00 51 1024.0
20260501181705 57 178 4.0 6.0 0.00 0.00 0.00 50 1024.0
20260501181602 57 175 5.0 5.0 0.00 0.00 0.00 49 1023.9
20260501181505 58 180 4.0 5.0 0.00 0.00 0.00 48 1023.9
20260501181404 58 175 4.0 5.0 0.00 0.00 0.00 47 1024.0
20260501181200 59 170 2.0 3.0 0.00 0.00 0.00 45 1024.0
20260501181103 59 170 2.0 3.0 0.00 0.00 0.00 45 1024.0
20260501180901 59 170 2.0 3.0 0.00 0.00 0.00 44 1024.0
20260501180700 60 170 2.0 3.0 0.00 0.00 0.00 43 1024.0
20260501180504 60 156 1.0 3.0 0.00 0.00 0.00 43 1024.0
20260501180401 60 155 1.0 3.0 0.00 0.00 0.00 43 1024.0
20260501180300 60 155 1.0 3.0 0.00 0.00 0.00 42 1024.0
20260501180205 60 155 1.0 3.0 0.00 0.00 0.00 42 1024.0
20260501180146 61 155 1.0 3.0 0.00 0.00 0.00 42 1023.9
20260501175903 61 156 1.0 3.0 0.00 0.00 0.00 42 1024.0
20260501175700 61 146 2.0 2.0 0.00 0.00 0.00 41 1024.0
20260501175400 61 172 1.0 2.0 0.00 0.00 0.00 41 1023.9
20260501175306 62 172 1.0 3.0 0.00 0.00 0.00 39 1024.0
20260501175200 62 172 0.0 3.0 0.00 0.00 0.00 39 1023.9
20260501175100 62 172 1.0 3.0 0.00 0.00 0.00 39 1024.0
20260501175005 62 172 1.0 3.0 0.00 0.00 0.00 40 1024.0
20260501174902 62 172 0.0 3.0 0.00 0.00 0.00 38 1024.0
20260501174800 62 172 1.0 3.0 0.00 0.00 0.00 39 1024.0
20260501174703 62 172 0.0 3.0 0.00 0.00 0.00 38 1023.9
20260501174500 62 172 1.0 3.0 0.00 0.00 0.00 39 1024.0
20260501174403 62 172 2.0 3.0 0.00 0.00 0.00 37 1023.9
20260501174300 63 151 1.0 3.0 0.00 0.00 0.00 37 1023.9
20260501174200 63 151 2.0 3.0 0.00 0.00 0.00 39 1024.0
20260501174104 63 151 1.0 3.0 0.00 0.00 0.00 38 1023.9
20260501174002 63 151 1.0 3.0 0.00 0.00 0.00 38 1024.0
20260501173803 63 151 1.0 3.0 0.00 0.00 0.00 38 1024.0
20260501173701 63 151 1.0 3.0 0.00 0.00 0.00 38 1024.0
20260501173601 63 151 1.0 3.0 0.00 0.00 0.00 39 1024.0
20260501173508 63 151 1.0 3.0 0.00 0.00 0.00 41 1024.0
20260501173401 63 151 2.0 3.0 0.00 0.00 0.00 37 1023.9
20260501173301 63 153 1.0 3.0 0.00 0.00 0.00 39 1024.0
20260501173205 64 151 2.0 3.0 0.00 0.00 0.00 39 1024.0
20260501173100 64 151 2.0 3.0 0.00 0.00 0.00 37 1024.0
20260501173001 64 151 1.0 3.0 0.00 0.00 0.00 39 1023.9
20260501172903 64 151 1.0 3.0 0.00 0.00 0.00 38 1023.9
20260501172800 64 153 0.0 3.0 0.00 0.00 0.00 38 1024.0
20260501172700 64 153 1.0 3.0 0.00 0.00 0.00 39 1023.9
20260501172603 64 153 1.0 3.0 0.00 0.00 0.00 38 1023.9
20260501172500 64 153 1.0 3.0 0.00 0.00 0.00 38 1024.0
20260501172305 64 153 1.0 2.0 0.00 0.00 0.00 37 1023.9
20260501172200 64 153 1.0 2.0 0.00 0.00 0.00 38 1023.9
20260501171900 64 153 0.0 2.0 0.00 0.00 0.00 34 1024.0
20260501171800 64 154 1.0 2.0 0.00 0.00 0.00 35 1024.0
20260501171703 64 154 1.0 2.0 0.00 0.00 0.00 36 1024.0
20260501171501 64 154 1.0 2.0 0.00 0.00 0.00 34 1024.0
20260501171403 65 154 1.0 2.0 0.00 0.00 0.00 36 1024.0
20260501171301 65 137 0.0 2.0 0.00 0.00 0.00 33 1023.9
20260501171200 65 137 2.0 3.0 0.00 0.00 0.00 33 1024.0
20260501171103 65 86 0.0 3.0 0.00 0.00 0.00 34 1024.0